FW3849 Weather Reports


time (UTC)temp
C
wind
direction
speed
KPH
gust
KPH
rain 1hr
cm
rain 24hr
cm
rain mn
cm
humidity
%
barometer
mb
20260901175535 33 177 17.7 27.4 0.00 0.00 0.00 31 1013.0
20260901175034 33 193 16.1 25.7 0.00 0.00 0.00 30 1013.1
20260901174534 33 209 14.5 22.5 0.00 0.00 0.00 31 1013.1
20260901174033 32 198 14.5 22.5 0.00 0.00 0.00 32 1013.1
20260901173531 32 202 11.3 27.4 0.00 0.00 0.00 33 1013.3
20260901173030 32 152 14.5 27.4 0.00 0.00 0.00 34 1013.2
20260901172528 32 196 11.3 24.1 0.00 0.00 0.00 34 1013.4
20260901172027 32 201 14.5 24.1 0.00 0.00 0.00 34 1013.4
20260901171533 32 202 16.1 24.1 0.00 0.00 0.00 34 1013.5
20260901171029 32 181 11.3 19.3 0.00 0.00 0.00 36 1013.5
20260901170523 31 191 8.0 19.3 0.00 0.00 0.00 36 1013.5
20260901165522 31 210 12.9 19.3 0.00 0.00 0.00 37 1013.6
20260901165021 31 208 11.3 19.3 0.00 0.00 0.00 38 1013.7
20260901164521 31 187 11.3 22.5 0.00 0.00 0.00 38 1013.7
20260901164019 30 122 8.0 22.5 0.00 0.00 0.00 39 1013.7
20260901163519 30 201 9.7 19.3 0.00 0.00 0.00 38 1013.8
20260901163022 30 191 9.7 22.5 0.00 0.00 0.00 40 1013.7
20260901162518 30 193 11.3 22.5 0.00 0.00 0.00 40 1013.7
20260901162020 30 199 11.3 19.3 0.00 0.00 0.00 40 1014.0
20260901161516 30 206 9.7 19.3 0.00 0.00 0.00 41 1013.8
20260901161016 30 169 8.0 17.7 0.00 0.00 0.00 42 1013.7
20260901160517 29 171 8.0 16.1 0.00 0.00 0.00 42 1013.7
20260901155526 29 155 8.0 19.3 0.00 0.00 0.00 44 1013.6
20260901155025 28 213 11.3 17.7 0.00 0.00 0.00 44 1013.7
20260901154524 28 209 12.9 17.7 0.00 0.00 0.00 44 1013.7
20260901154025 28 191 9.7 17.7 0.00 0.00 0.00 45 1013.8
20260901153523 28 137 9.7 17.7 0.00 0.00 0.00 45 1013.8
20260901153027 28 204 8.0 22.5 0.00 0.00 0.00 46 1013.7
20260901152525 28 203 12.9 22.5 0.00 0.00 0.00 46 1013.6
20260901152022 28 183 8.0 22.5 0.00 0.00 0.00 47 1013.7
20260901151522 27 178 9.7 22.5 0.00 0.00 0.00 47 1013.9
20260901151022 27 195 11.3 22.5 0.00 0.00 0.00 47 1013.9
20260901150523 27 213 12.9 22.5 0.00 0.00 0.00 47 1014.0
20260901145511 27 158 12.9 22.5 0.00 0.00 0.00 48 1013.9
20260901145010 27 185 9.7 22.5 0.00 0.00 0.00 49 1014.0
20260901144510 27 195 11.3 20.9 0.00 0.00 0.00 49 1013.9
20260901144012 27 210 12.9 22.5 0.00 0.00 0.00 49 1014.0
20260901143514 27 199 9.7 22.5 0.00 0.00 0.00 49 1014.0
20260901143012 26 196 9.7 25.7 0.00 0.00 0.00 50 1014.0
20260901142509 26 191 14.5 24.1 0.00 0.00 0.00 50 1014.0
20260901142009 26 198 14.5 20.9 0.00 0.00 0.00 50 1013.9
20260901141509 26 196 11.3 22.5 0.00 0.00 0.00 51 1013.9
20260901141013 26 172 12.9 25.7 0.00 0.00 0.00 51 1014.0
20260901140509 26 156 8.0 20.9 0.00 0.00 0.00 52 1014.0
20260901135511 26 199 9.7 20.9 0.00 0.00 0.00 52 1014.0
20260901135006 26 186 11.3 20.9 0.00 0.00 0.00 52 1014.0
20260901134510 26 187 11.3 22.5 0.00 0.00 0.00 53 1014.2
20260901134005 26 193 12.9 22.5 0.00 0.00 0.00 53 1014.1
20260901133505 25 175 8.0 17.7 0.00 0.00 0.00 53 1014.1
20260901133006 25 131 8.0 14.5 0.00 0.00 0.00 53 1014.1
20260901132504 25 158 6.4 14.5 0.00 0.00 0.00 54 1013.9
20260901132003 25 180 6.4 14.5 0.00 0.00 0.00 54 1013.9
20260901131504 25 170 8.0 14.5 0.00 0.00 0.00 54 1014.0
20260901131004 25 164 6.4 11.3 0.00 0.00 0.00 54 1013.9
20260901130504 25 191 4.8 12.9 0.00 0.00 0.00 54 1013.9
20260901125501 25 179 4.8 8.0 0.00 0.00 0.00 54 1013.8
20260901125101 25 181 4.8 9.7 0.00 0.00 0.00 54 1013.9
20260901124601 25 187 4.8 14.5 0.00 0.00 0.00 54 1013.7
20260901124100 25 158 6.4 14.5 0.00 0.00 0.00 54 1013.8
20260901123600 25 184 6.4 16.1 0.00 0.00 0.00 54 1013.8
20260901123058 25 168 8.0 16.1 0.00 0.00 0.00 53 1013.7
20260901122558 25 202 8.0 16.1 0.00 0.00 0.00 53 1013.4
20260901122057 25 165 9.7 16.1 0.00 0.00 0.00 53 1013.4
20260901121603 25 172 6.4 12.9 0.00 0.00 0.00 53 1013.3
20260901121054 25 188 8.0 12.9 0.00 0.00 0.00 53 1013.2
20260901120554 25 162 8.0 16.1 0.00 0.00 0.00 53 1013.2
20260901120153 25 171 9.7 20.9 0.00 0.00 0.00 52 1013.3
20260901115552 25 177 8.0 19.3 0.00 0.00 0.00 52 1013.4
20260901115056 25 175 6.4 19.3 0.00 0.00 0.00 52 1013.3
20260901114551 26 185 8.0 16.1 0.00 0.00 0.00 52 1013.3
20260901114052 26 187 8.0 16.1 0.00 0.00 0.00 52 1013.2
20260901113548 26 164 6.4 16.1 0.00 0.00 0.00 51 1013.2
20260901113047 26 185 8.0 17.7 0.00 0.00 0.00 51 1013.2
20260901112546 26 181 8.0 16.1 0.00 0.00 0.00 51 1013.3
20260901112044 26 185 8.0 17.7 0.00 0.00 0.00 51 1013.3
20260901111549 26 197 6.4 17.7 0.00 0.00 0.00 51 1013.3
20260901111043 26 169 8.0 19.3 0.00 0.00 0.00 50 1013.3
20260901110542 26 168 9.7 19.3 0.00 0.00 0.00 50 1013.3
20260901110142 26 183 9.7 17.7 0.00 0.00 0.00 50 1013.2
20260901105043 26 187 8.0 19.3 0.00 0.00 0.00 49 1013.1
20260901104543 26 171 11.3 19.3 0.00 0.00 0.00 49 1013.1
20260901104046 26 185 8.0 19.3 0.00 0.00 0.00 49 1013.1
20260901103541 26 173 9.7 19.3 0.00 0.00 0.00 49 1013.1
20260901103044 26 190 8.0 16.1 0.00 0.00 0.00 49 1013.0
20260901102541 26 193 9.7 16.1 0.00 0.00 0.00 49 1013.0
20260901102040 26 161 9.7 16.1 0.00 0.00 0.00 48 1013.0
20260901101540 26 189 6.4 16.1 0.00 0.00 0.00 48 1013.0
20260901101041 27 189 8.0 17.7 0.00 0.00 0.00 48 1012.8
20260901100541 27 173 8.0 25.7 0.00 0.00 0.00 46 1012.8
20260901100139 27 173 8.0 25.7 0.00 0.00 0.00 46 1012.7
20260901095535 27 182 6.4 25.7 0.00 0.00 0.00 46 1012.6
20260901095035 27 166 9.7 25.7 0.00 0.00 0.00 46 1012.6
20260901094535 27 169 9.7 22.5 0.00 0.00 0.00 46 1012.6
20260901094135 27 178 9.7 24.1 0.00 0.00 0.00 45 1012.6
20260901093533 27 156 9.7 24.1 0.00 0.00 0.00 45 1012.6
20260901093033 27 185 6.4 16.1 0.00 0.00 0.00 44 1012.6
20260901092533 27 194 8.0 16.1 0.00 0.00 0.00 44 1012.7
20260901092032 27 197 8.0 17.7 0.00 0.00 0.00 43 1012.6
20260901091533 27 202 12.9 17.7 0.00 0.00 0.00 43 1012.7
20260901091031 27 146 9.7 17.7 0.00 0.00 0.00 42 1012.7
20260901090530 27 200 6.4 16.1 0.00 0.00 0.00 41 1012.7
20260901090130 27 171 6.4 16.1 0.00 0.00 0.00 40 1012.7
20260901085529 27 184 6.4 17.7 0.00 0.00 0.00 40 1012.7
20260901085029 27 168 9.7 20.9 0.00 0.00 0.00 41 1012.7
20260901084528 27 152 9.7 24.1 0.00 0.00 0.00 40 1012.7
20260901084028 27 180 12.9 24.1 0.00 0.00 0.00 40 1012.7
20260901083531 28 200 8.0 19.3 0.00 0.00 0.00 40 1012.6
20260901083026 28 190 8.0 19.3 0.00 0.00 0.00 39 1012.7
20260901082526 28 181 9.7 19.3 0.00 0.00 0.00 39 1012.7
20260901082027 28 187 8.0 19.3 0.00 0.00 0.00 38 1012.7
20260901081525 28 175 11.3 24.1 0.00 0.00 0.00 38 1012.6
20260901081025 28 162 12.9 24.1 0.00 0.00 0.00 38 1012.6
20260901080525 28 192 8.0 17.7 0.00 0.00 0.00 38 1012.6
20260901080126 28 189 6.4 16.1 0.00 0.00 0.00 38 1012.6
20260901075527 28 181 8.0 16.1 0.00 0.00 0.00 38 1012.7
20260901075028 28 193 8.0 19.3 0.00 0.00 0.00 37 1012.6
20260901074524 28 196 8.0 14.5 0.00 0.00 0.00 37 1012.5
20260901074028 28 190 6.4 14.5 0.00 0.00 0.00 38 1012.5
20260901073524 28 187 6.4 14.5 0.00 0.00 0.00 38 1012.5
20260901073035 28 150 6.4 12.9 0.00 0.00 0.00 38 1012.5
20260901072524 28 198 6.4 12.9 0.00 0.00 0.00 38 1012.6
20260901072024 28 193 6.4 11.3 0.00 0.00 0.00 38 1012.6
20260901071524 28 181 6.4 11.3 0.00 0.00 0.00 38 1012.6
20260901071022 28 179 6.4 12.9 0.00 0.00 0.00 37 1012.5
20260901070521 28 181 6.4 14.5 0.00 0.00 0.00 37 1012.6
20260901070121 28 200 4.8 14.5 0.00 0.00 0.00 37 1012.5
20260901065523 28 164 6.4 14.5 0.00 0.00 0.00 37 1012.5
20260901065021 28 177 6.4 14.5 0.00 0.00 0.00 37 1012.5
20260901064520 29 184 6.4 12.9 0.00 0.00 0.00 37 1012.6
20260901064019 29 180 4.8 14.5 0.00 0.00 0.00 37 1012.6
20260901063518 29 184 8.0 14.5 0.00 0.00 0.00 37 1012.6
20260901063023 29 160 6.4 16.1 0.00 0.00 0.00 37 1012.6
20260901062517 29 199 8.0 16.1 0.00 0.00 0.00 36 1012.6
20260901062017 29 201 9.7 17.7 0.00 0.00 0.00 36 1012.6
20260901061517 29 175 8.0 17.7 0.00 0.00 0.00 36 1012.5
20260901061017 29 195 8.0 17.7 0.00 0.00 0.00 36 1012.5
20260901060517 29 169 4.8 19.3 0.00 0.00 0.00 36 1012.6
20260901060115 29 183 11.3 20.9 0.00 0.00 0.00 36 1012.4
20260901055516 29 157 8.0 20.9 0.00 0.00 0.00 36 1012.4
20260901055020 29 179 8.0 17.7 0.00 0.00 0.00 37 1012.3
20260901054517 29 200 6.4 17.7 0.00 0.00 0.00 37 1012.4
20260901054016 29 164 8.0 17.7 0.00 0.00 0.00 37 1012.3
20260901053516 29 174 4.8 14.5 0.00 0.00 0.00 37 1012.3
20260901053016 29 191 6.4 14.5 0.00 0.00 0.00 37 1012.3
20260901052514 29 177 8.0 14.5 0.00 0.00 0.00 37 1012.2
20260901052015 29 176 6.4 12.9 0.00 0.00 0.00 37 1012.1
20260901051513 29 193 6.4 14.5 0.00 0.00 0.00 36 1012.1
20260901051013 30 154 6.4 14.5 0.00 0.00 0.00 36 1012.1
20260901050512 30 174 4.8 12.9 0.00 0.00 0.00 36 1012.2
20260901050111 30 189 4.8 9.7 0.00 0.00 0.00 36 1012.2
20260901045511 30 192 4.8 9.7 0.00 0.00 0.00 36 1012.2
20260901045010 30 181 4.8 9.7 0.00 0.00 0.00 36 1012.1
20260901044511 30 172 3.2 9.7 0.00 0.00 0.00 36 1012.1
20260901044010 30 177 4.8 8.0 0.00 0.00 0.00 35 1012.2
20260901043510 30 186 4.8 8.0 0.00 0.00 0.00 35 1012.2
20260901043010 30 186 4.8 9.7 0.00 0.00 0.00 35 1012.2
20260901042511 30 189 6.4 9.7 0.00 0.00 0.00 34 1012.1
20260901042009 30 180 4.8 12.9 0.00 0.00 0.00 34 1012.1
20260901041509 30 183 6.4 12.9 0.00 0.00 0.00 34 1012.1
20260901041009 31 189 6.4 12.9 0.00 0.00 0.00 34 1012.0
20260901040509 31 191 6.4 14.5 0.00 0.00 0.00 34 1012.0
20260901040139 31 195 8.0 14.5 0.00 0.00 0.00 33 1011.9
20260901035509 31 190 9.7 16.1 0.00 0.00 0.00 33 1011.8
20260901035007 31 183 4.8 14.5 0.00 0.00 0.00 33 1012.0
20260901034507 31 187 6.4 14.5 0.00 0.00 0.00 32 1011.8
20260901034008 31 194 6.4 17.7 0.00 0.00 0.00 32 1011.8
20260901033510 31 191 8.0 19.3 0.00 0.00 0.00 31 1011.8
20260901033007 31 187 9.7 19.3 0.00 0.00 0.00 31 1011.7
20260901032507 31 205 9.7 17.7 0.00 0.00 0.00 31 1011.7
20260901032007 31 190 9.7 19.3 0.00 0.00 0.00 31 1011.6
20260901031507 31 191 11.3 17.7 0.00 0.00 0.00 31 1011.4
20260901031008 32 189 8.0 20.9 0.00 0.00 0.00 30 1011.4
20260901030506 32 198 11.3 20.9 0.00 0.00 0.00 30 1011.3
20260901030112 32 191 11.3 17.7 0.00 0.00 0.00 30 1011.2
20260901025507 32 191 9.7 17.7 0.00 0.00 0.00 30 1011.1
20260901025007 32 162 11.3 17.7 0.00 0.00 0.00 29 1010.9
20260901024507 32 204 8.0 20.9 0.00 0.00 0.00 29 1010.8
20260901024007 32 202 9.7 19.3 0.00 0.00 0.00 28 1010.7
20260901023508 32 191 8.0 16.1 0.00 0.00 0.00 28 1010.4
20260901023006 32 196 8.0 16.1 0.00 0.00 0.00 28 1010.4
20260901022505 32 200 8.0 16.1 0.00 0.00 0.00 27 1010.2
20260901022006 32 192 8.0 16.1 0.00 0.00 0.00 26 1010.1
20260901021510 32 196 8.0 16.1 0.00 0.00 0.00 26 1009.9
20260901021005 32 191 8.0 14.5 0.00 0.00 0.00 25 1009.8
20260901020505 32 185 8.0 14.5 0.00 0.00 0.00 24 1009.8
20260901020006 32 196 9.7 19.3 0.00 0.00 0.00 24 1009.7
20260901015505 32 192 8.0 19.3 0.00 0.00 0.00 23 1009.6
20260901015007 32 193 9.7 16.1 0.00 0.00 0.00 23 1009.6
20260901014504 32 195 9.7 16.1 0.00 0.00 0.00 23 1009.5
20260901014005 33 160 6.4 14.5 0.00 0.00 0.00 23 1009.5
20260901013505 33 193 3.2 16.1 0.00 0.00 0.00 22 1009.4
20260901013005 33 196 6.4 16.1 0.00 0.00 0.00 22 1009.4
20260901012508 33 195 8.0 17.7 0.00 0.00 0.00 22 1009.4
20260901012009 33 196 9.7 17.7 0.00 0.00 0.00 22 1009.4
20260901011504 33 201 9.7 19.3 0.00 0.00 0.00 21 1009.3
20260901011004 33 195 9.7 19.3 0.00 0.00 0.00 22 1009.4
20260901010504 33 196 9.7 17.7 0.00 0.00 0.00 21 1009.4
20260901010116 34 196 12.9 19.3 0.00 0.00 0.00 21 1009.3
20260901005507 34 196 11.3 19.3 0.00 0.00 0.00 21 1009.3
20260901005006 34 203 9.7 19.3 0.00 0.00 0.00 21 1009.2
20260901004504 35 186 9.7 20.9 0.00 0.00 0.00 21 1009.2
20260901004003 35 195 12.9 24.1 0.00 0.00 0.00 20 1009.2
20260901003503 35 169 14.5 22.5 0.00 0.00 0.00 20 1009.3
20260901003008 35 183 11.3 19.3 0.00 0.00 0.00 20 1009.2
20260901002503 35 186 9.7 22.5 0.00 0.00 0.00 20 1009.3
20260901002005 35 244 9.7 25.7 0.00 0.00 0.00 20 1009.2
20260901001502 35 203 16.1 24.1 0.00 0.00 0.00 20 1009.2
20260901001002 35 198 11.3 24.1 0.00 0.00 0.00 19 1009.2
20260901000505 35 201 14.5 20.9 0.00 0.00 0.00 19 1009.2
20260901000104 35 191 12.9 22.5 0.00 0.00 0.00 19 1009.2
20260831235502 35 202 12.9 22.5 0.00 0.00 0.00 19 1009.2
20260831235002 35 142 6.4 19.3 0.00 0.00 0.00 18 1009.2
20260831234502 35 194 11.3 25.7 0.00 0.00 0.00 18 1009.0
20260831234002 35 207 11.3 25.7 0.00 0.00 0.00 18 1009.1
20260831233502 36 166 11.3 24.1 0.00 0.00 0.00 18 1009.0
20260831233002 36 200 9.7 20.9 0.00 0.00 0.00 18 1009.0
20260831232501 36 199 9.7 20.9 0.00 0.00 0.00 19 1009.0
20260831232001 36 195 12.9 27.4 0.00 0.00 0.00 19 1009.1
20260831231600 36 171 11.3 27.4 0.00 0.00 0.00 20 1009.0
20260831231101 36 212 11.3 24.1 0.00 0.00 0.00 21 1008.9
20260831230602 35 162 6.4 20.9 0.00 0.00 0.00 21 1009.0
20260831230112 36 212 17.7 29.0 0.00 0.00 0.00 21 1009.2
20260831225100 36 166 14.5 24.1 0.00 0.00 0.00 21 1009.1
20260831224558 36 189 9.7 20.9 0.00 0.00 0.00 21 1009.2
20260831224058 36 150 11.3 22.5 0.00 0.00 0.00 20 1009.2
20260831223557 36 145 8.0 22.5 0.00 0.00 0.00 21 1009.2
20260831223108 36 157 6.4 17.7 0.00 0.00 0.00 21 1009.2
20260831222557 36 204 9.7 19.3 0.00 0.00 0.00 22 1009.2
20260831222055 35 206 11.3 22.5 0.00 0.00 0.00 22 1009.2
20260831221558 35 158 12.9 22.5 0.00 0.00 0.00 21 1009.3
20260831221054 35 202 8.0 19.3 0.00 0.00 0.00 22 1009.3
20260831220554 35 191 9.7 17.7 0.00 0.00 0.00 22 1009.3
20260831220053 35 182 14.5 22.5 0.00 0.00 0.00 23 1009.3
20260831215054 35 87 6.4 17.7 0.00 0.00 0.00 23 1009.4
20260831214604 35 149 8.0 19.3 0.00 0.00 0.00 23 1009.6
20260831214053 35 181 11.3 19.3 0.00 0.00 0.00 22 1009.8
20260831213552 35 146 8.0 19.3 0.00 0.00 0.00 23 1009.8
20260831213051 35 202 14.5 24.1 0.00 0.00 0.00 23 1009.9
20260831212550 36 200 12.9 24.1 0.00 0.00 0.00 22 1010.0
20260831212049 35 209 11.3 24.1 0.00 0.00 0.00 23 1010.1
20260831211550 35 193 14.5 24.1 0.00 0.00 0.00 23 1010.0
20260831211049 35 244 9.7 19.3 0.00 0.00 0.00 24 1010.0
20260831210550 35 217 8.0 22.5 0.00 0.00 0.00 24 1010.1
20260831210047 35 192 6.4 24.1 0.00 0.00 0.00 24 1010.4
20260831205046 35 192 14.5 24.1 0.00 0.00 0.00 24 1010.4
20260831204545 35 187 9.7 25.7 0.00 0.00 0.00 24 1010.6
20260831204045 35 187 16.1 25.7 0.00 0.00 0.00 24 1010.6
20260831203545 35 193 12.9 24.1 0.00 0.00 0.00 24 1010.6
20260831203046 35 158 14.5 22.5 0.00 0.00 0.00 24 1010.8
20260831202544 35 159 12.9 24.1 0.00 0.00 0.00 25 1010.9
20260831202042 35 200 16.1 27.4 0.00 0.00 0.00 26 1011.0
20260831201542 35 195 11.3 27.4 0.00 0.00 0.00 25 1011.1
20260831201041 35 186 11.3 24.1 0.00 0.00 0.00 25 1011.1
20260831200540 35 190 11.3 20.9 0.00 0.00 0.00 25 1011.2
20260831200043 35 177 12.9 24.1 0.00 0.00 0.00 26 1011.3
20260831195041 35 193 9.7 25.7 0.00 0.00 0.00 26 1011.3
20260831194557 35 222 14.5 25.7 0.00 0.00 0.00 25 1011.4
20260831194039 35 216 11.3 24.1 0.00 0.00 0.00 25 1011.4
20260831193539 35 189 16.1 24.1 0.00 0.00 0.00 25 1011.5
20260831193040 35 174 16.1 22.5 0.00 0.00 0.00 26 1011.4
20260831192539 34 166 11.3 35.4 0.00 0.00 0.00 27 1011.4
20260831192038 34 210 17.7 35.4 0.00 0.00 0.00 27 1011.4
20260831191538 35 205 16.1 24.1 0.00 0.00 0.00 26 1011.5
20260831191043 35 143 11.3 25.7 0.00 0.00 0.00 27 1011.7
20260831190536 34 196 14.5 25.7 0.00 0.00 0.00 28 1011.7
20260831190035 34 184 19.3 29.0 0.00 0.00 0.00 29 1011.7
20260831185033 33 200 16.1 27.4 0.00 0.00 0.00 29 1011.7
20260831184532 33 219 14.5 30.6 0.00 0.00 0.00 27 1011.8
20260831184032 33 205 17.7 29.0 0.00 0.00 0.00 29 1011.8
20260831183531 33 182 17.7 29.0 0.00 0.00 0.00 29 1011.9
20260831183034 33 122 11.3 29.0 0.00 0.00 0.00 30 1012.0
20260831182530 33 156 19.3 29.0 0.00 0.00 0.00 30 1012.1
20260831182028 33 200 17.7 29.0 0.00 0.00 0.00 32 1012.2
20260831181527 33 166 17.7 27.4 0.00 0.00 0.00 32 1012.2
20260831181026 33 187 16.1 25.7 0.00 0.00 0.00 34 1012.2
20260831180525 32 214 9.7 30.6 0.00 0.00 0.00 36 1012.4
20260831180025 32 189 11.3 29.0 0.00 0.00 0.00 35 1012.4